Weather History for Yenbo, Saudi Arabia

Change the Weather History Date:

Friday, January 18, 2013

  Actual Average Record
Temperature  
Mean Temperature 77 °F -  
Max Temperature 86 °F 81 °F 89 °F (2002)
Min Temperature 68 °F 56 °F 48 °F (2012)
Cooling Degree Days 12    
Growing Degree Days 27 (Base 50)    
Moisture  
Dew Point 55 °F    
Average Humidity 47    
Maximum Humidity 69    
Minimum Humidity 23    
Precipitation  
Precipitation 0.00 in - - ()
Sea Level Pressure  
Sea Level Pressure 29.88 in    
Wind  
Wind Speed 4 mph ()    
Max Wind Speed 12 mph    
Max Gust Speed -    
Visibility 6.1 miles    
Events      
Averages and records for this station are not official NWS values.
T = Trace of Precipitation, MM = Missing Value Source: Averaged Metar Reports

Daily Weather History Graph

Daily Weather History Graph

Search for Another Location

Airport:

Trip Planner

Search our weather history database for the weather conditions in past years. The results will help you decide how hot, cold, wet, or windy it might be!

Date:

Astronomy

Jan. 18, 2013 Rise Set
Actual Time 7:12 AM AST 6:03 PM AST
Civil Twilight 6:48 AM AST 6:28 PM AST
Nautical Twilight 6:20 AM AST 6:55 PM AST
Astronomical Twilight 5:53 AM AST 7:23 PM AST
Moon 11:31 AM AST (1/18) No Moon Set
Length of Visible Light 11h 39m
Length of Day
10h 51m
Waxing Crescent, 44% of the Moon is Illuminated
Jan 18
Waxing Crescent
Jan 19
First Quarter
Jan 27
Full
Feb 3
Last Quarter
Feb 10
New

Hourly Weather History & Observations

Time (AST) Temp. Heat Index Dew Point Humidity Pressure Visibility Wind Dir Wind Speed Gust Speed Precip Events Conditions
12:00 AM 72 °F - 52 °F 38% 29.89 in 6 mi ENE 6.9 mph - -   Clear
12:00 AM 71.6 °F - 51.8 °F 50% 29.89 in - ENE 6.9 mph - N/A   Clear
1:00 AM 71.6 °F - 53.6 °F 53% 29.86 in - ESE 4.6 mph - N/A   Clear
2:00 AM 69.8 °F - 53.6 °F 56% 29.86 in - ESE 3.5 mph - N/A   Clear
3:00 AM 71 °F - 50 °F 36% 29.86 in 6 mi Calm Calm - -   Partly Cloudy
3:00 AM 71.6 °F - 50.0 °F 46% 29.86 in - Calm Calm - N/A   Clear
4:00 AM 71.6 °F - 46.4 °F 41% 29.83 in - Calm Calm - N/A   Clear
5:00 AM 71.6 °F - 46.4 °F 41% 29.83 in - ENE 4.6 mph - N/A   Clear
6:00 AM 72 °F - 43 °F 24% 29.87 in 6 mi South 4.6 mph - -   Scattered Clouds
6:00 AM 71.6 °F - 42.8 °F 35% 29.86 in - South 4.6 mph - N/A   Clear
7:00 AM 71.6 °F - 44.6 °F 38% 29.89 in - SW 2.3 mph - N/A   Clear
8:00 AM 71.6 °F - 41.0 °F 33% 29.89 in - WNW 2.3 mph - N/A   Clear
9:00 AM 73 °F - 45 °F 25% 29.93 in 6 mi Calm Calm - -   Scattered Clouds
9:00 AM 73.4 °F - 44.6 °F 36% 29.92 in 6.2 mi Calm Calm - N/A   Scattered Clouds
10:00 AM 77.0 °F - 44.6 °F 32% 29.92 in 6.2 mi ENE 3.5 mph - N/A   Scattered Clouds
11:00 AM 82.4 °F - 44.6 °F 26% 29.92 in - ENE 2.3 mph - N/A   Clear
12:00 PM 84 °F - 52 °F 23% 29.91 in 6 mi SW 5.8 mph - -   Scattered Clouds
12:00 PM 84.2 °F - 51.8 °F 33% 29.89 in - SW 5.8 mph - N/A   Clear
1:00 PM 84.2 °F 83.8 °F 59.0 °F 42% 29.89 in - SW 11.5 mph - N/A   Clear
2:00 PM 82.4 °F 83.9 °F 64.4 °F 54% 29.86 in - West 5.8 mph - N/A   Clear
3:00 PM 82 °F - 64 °F 46% 29.84 in 6 mi SW 5.8 mph - -   Scattered Clouds
3:00 PM 82.4 °F 83.9 °F 64.4 °F 54% 29.83 in - SW 5.8 mph - N/A   Clear
4:00 PM 82.4 °F 85.4 °F 68.0 °F 62% 29.83 in - South 3.5 mph - N/A   Clear
5:00 PM 82.4 °F 85.4 °F 68.0 °F 62% 29.86 in 6.2 mi WSW 9.2 mph - N/A   Scattered Clouds
6:00 PM 81 °F - 68 °F 56% 29.87 in 6 mi WSW 2.3 mph - -   Partly Cloudy
6:00 PM 80.6 °F 83.2 °F 68.0 °F 65% 29.86 in 6.2 mi WSW 2.3 mph - N/A   Scattered Clouds
7:00 PM 80.6 °F 83.2 °F 68.0 °F 65% 29.86 in 6.2 mi Calm Calm - N/A   Scattered Clouds
8:00 PM 78.8 °F - 66.2 °F 65% 29.86 in 6.2 mi Calm Calm - N/A   Scattered Clouds
9:00 PM 78 °F - 66 °F 59% 29.90 in 6 mi North 3.5 mph - -   Scattered Clouds
9:00 PM 77.0 °F - 66.2 °F 69% 29.89 in 6.2 mi North 3.5 mph - N/A   Scattered Clouds
10:00 PM 77.0 °F - 64.4 °F 65% 29.89 in 6.2 mi NE 2.3 mph - N/A   Scattered Clouds
11:00 PM 75.2 °F - 62.6 °F 65% 29.89 in - NE 3.5 mph - N/A   Clear